STARLINK-6033 (56322 NORAD) Tracking and Keplerian Element Data

This shows tracking and keplerian element data for the satellite.

Feedback or suggestion? Click here.




ElementValue
Catalog56322
NameSTARLINK-6033
Epoch Orbit179
Epoch Day126.91667824
Epoch Year2023
RAAN126.3803
Inclination97.6626
Eccentricity0.0001591
Argument of Perigee97.933
Mean Anonmoly115.917
Mean Motion15.6808953
Decay Rate-0.00797928
L11 56322U 23058F 23126.91667824 -.00797928 00000+0 -79185-2 0 9998
L22 56322 97.6626 126.3803 0001591 97.9330 115.9170 15.68089530 1792



Live tracking and technical data element details for STARLINK-6033 (NORAD 56322). STARLINK-6033 can be tracked NOW for your location showing map with azimuth and elevation plus other details from your city location.







IsCatalogInMostPopularTable: catalog: 56322, numindb: 3
Update: records affected: 1



GetName: 56322 STARLINK-6033

Hit Count: updated at: Sat, 03 Jun 2023 18:11:48 GMT